Flag for U.S.A. Weather past 2 weeks in Minot, North Dakota, U.S.A.

Now
68 °F

Partly sunny.


Feels Like: 68 °F
Forecast: 50 / 74 °F
Wind: 6 mph from North

Location: Minot International Airport

Current Time: Aug 29, 2014 at 8:09:31 PM

Latest Report: Aug 29, 2014 at 6:54 PM


Visibility: 10 mi

Pressure: 29.94 "Hg

Humidity: 53%

Dew point: 50 °F

Location of MinotLocation

Historic Weather in Minot — Graph

°F

Minot temperature yesterday

Maximum temperature yesterday: 86 °F (at 3:54 PM)
Minimum temperature yesterday: 60 °F (at 12:54 AM)
Average temperature yesterday: 73 °F

Past Weeks' High & Low Weather Summary

 TemperatureHumidityPressure
High87 °F (Aug 14, 5:54 PM)97% (Aug 17, 6:03 AM)30.19 "Hg (Aug 17, 6:03 AM)
Low48 °F (Aug 25, 6:54 AM)33% (Aug 28, 1:54 PM)29.57 "Hg (Aug 24, 3:54 PM)
Average66 °F77%29.87 "Hg
* Reported Aug 14 5:54 PM — Aug 29 5:54 PM, Minot, Weather by CustomWeather, © 2014

Note: Actual official high and low records may vary slightly from our data, if they occured in-between our weather recording intervals... More about our weather records

Advertising

Minot weather history for previous 24 hours

 ConditionsComfort  
Time TempWeatherWind HumidityBarometerVisibility
5:54 PM
Aug 29
67 °FPartly sunny.9 mph53%29.94 "Hg10 mi
4:54 PM69 °FScattered clouds.13 mph53%29.93 "Hg10 mi
3:54 PM70 °FSunny.16 mph53%29.91 "Hg10 mi
2:04 PM66 °FPartly sunny.16 mph68%29.93 "Hg10 mi
1:54 PM66 °FBroken clouds.13 mph68%29.91 "Hg10 mi
12:54 PM67 °FOvercast.14 mph66%29.90 "Hg10 mi
11:54 AM67 °FPartly sunny.14 mph68%29.88 "Hg10 mi
10:54 AM63 °FOvercast.17 mph81%29.87 "Hg10 mi
9:54 AM63 °FLow clouds.17 mph87%29.84 "Hg10 mi
8:54 AM63 °FLow clouds.16 mph87%29.81 "Hg10 mi
7:54 AM61 °FPassing clouds.15 mph83%29.79 "Hg10 mi
6:54 AM60 °FClear.12 mph83%29.76 "Hg10 mi
5:54 AM63 °FClear.12 mph84%29.75 "Hg10 mi
4:54 AM63 °FClear.14 mph87%29.73 "Hg10 mi
3:54 AM67 °FPassing clouds.12 mph85%29.70 "Hg10 mi
2:54 AM69 °FPassing clouds.14 mph81%29.67 "Hg10 mi
1:54 AM70 °FPassing clouds.12 mph79%29.69 "Hg10 mi
12:54 AM70 °FClear.8 mph81%29.71 "Hg10 mi
11:54 PM
Aug 28
72 °FPassing clouds.15 mph76%29.72 "Hg10 mi
10:54 PM71 °FOvercast.10 mph84%29.73 "Hg10 mi
9:54 PM72 °FClear.8 mph81%29.75 "Hg10 mi
8:54 PM74 °FScattered clouds.8 mph74%29.75 "Hg10 mi
Weather by CustomWeather, © 2014

See weather overviewHow to use our weather pages